Regional Weather Roundup
Issued by NWS

Home | Current Version | Previous Version | Graphics & Text | Print | Product List | Glossary On
Versions: 1 2 3 4 5 6 7 8 9 10 11 12 13 14 15 16 17 18 19 20 21 22 23 24 25 26 27 28 29 30 31 32 33 34 35 36 37 38 39 40 41 42 43 44 45 46 47 48 49 50
000
ASUS45 KABQ 231410
RWRNM
WEATHER ROUNDUP FOR NEW MEXICO
NATIONAL WEATHER SERVICE ALBUQUERQUE NM
800 AM MDT WED APR 23 2014

NOTE: "FAIR" MEANS FEW OR NO CLOUDS BELOW 12,000 FEET AGL WITH NO
       SIGNIFICANT WEATHER OR OBSTRUCTIONS TO VISION.

      THIS PRODUCT IS RELEASED AS TWO VERSIONS.  ONE VERSION NEAR
      THE TOP OF THE HOUR CONTAINING PRELIMINARY DATA FROM ALBUQUERQUE
      AND OTHER STATIONS.  A FINAL VERSION WITH ADDITIONAL DATA IS
      ISSUED ABOUT 10 MINUTES AFTER THE HOUR.

NMZ501-503-504-510>518-231500-
NORTHWEST PLATEAU/NORTHCENTRAL MOUNTAINS

CITY           SKY/WX    TMP DP  RH WIND       PRES   REMARKS
FARMINGTON     SUNNY     55  28  35 SW8       29.84R
LOS ALAMOS     PTSUNNY   55  25  30 SW8       29.95R
SANTA FE       MOSUNNY   54  28  36 N5        29.89R
TAOS           MOSUNNY   55  25  30 W22       29.94S
ANGEL FIRE     FAIR      49  26  40 W21G28    29.96R

$$
NMZ402-403-502-505>509-231500-
WESTCENTRAL MOUNTAINS/SOUTHWEST MOUNTAINS

CITY           SKY/WX    TMP DP  RH WIND       PRES   REMARKS
GALLUP         SUNNY     51  29  42 SW13      29.92R
GRANTS         SUNNY     53  24  31 CALM      29.94R
SILVER CITY    MOSUNNY   59  27  29 W10       29.98R

$$
NMZ407-409-411-412-231500-
SOUTHERN DESERTS

CITY           SKY/WX    TMP DP  RH WIND       PRES   REMARKS
LORDSBURG      FAIR      57  32  38 CALM      29.93R
DEMING         PTSUNNY   59  31  34 W8        29.92R
LAS CRUCES     CLOUDY    64  25  23 W9        29.94R
HOLLOMAN AFB   MOSUNNY   70  27  20 SW10      29.88R
ALAMOGORDO     MOSUNNY   64  27  24 S10       29.90R
T OR C         CLOUDY    61  29  29 NE3       29.89R

$$
NMZ519>523-231500-
CENTRAL VALLEYS/CENTRAL HIGHLANDS

CITY           SKY/WX    TMP DP  RH WIND       PRES   REMARKS
ALBUQUERQUE    MOSUNNY   61  26  26 SW7       29.89R
DOUBLE EAGLE   MOSUNNY   55  28  35 CALM      29.91R
MORIARTY ARPT  FAIR      55  28  35 S3        29.93R
CLINES CORNERS MOSUNNY   56  29  35 W15       29.93R
BELEN          FAIR      61  25  25 W6        29.89R
SOCORRO        FAIR      60  30  32 CALM      29.88R

$$
NMZ524>526-539-540-231500-
SOUTHCENTRAL MOUNTAINS

CITY           SKY/WX    TMP DP  RH WIND       PRES   REMARKS
RUIDOSO        MOSUNNY   55  27  33 S10       30.00R

$$
NMZ527>531-231500-
NORTHEAST HIGHLANDS/NORTHEAST PLAINS

CITY           SKY/WX    TMP DP  RH WIND       PRES   REMARKS
LAS VEGAS      MOSUNNY   54  36  50 S9        29.89R
RATON          SUNNY     54  41  61 W6        29.83R
CLAYTON        PTSUNNY   62  41  46 S26       29.77F

$$
NMZ532>537-231500-
EASTCENTRAL PLAINS

CITY           SKY/WX    TMP DP  RH WIND       PRES   REMARKS
TUCUMCARI      PTSUNNY   67  45  45 S20       29.78R
CANNON AFB     CLOUDY    62  47  58 S10       29.86R
CLOVIS AIRPORT CLOUDY    61  46  59 S20G25    29.88R

$$
NMZ028-029-538-231500-
SOUTHEAST PLAINS

CITY           SKY/WX    TMP DP  RH WIND       PRES   REMARKS
ROSWELL        CLOUDY    65  48  54 S15       29.83R
ARTESIA        CLOUDY    64  48  55 S15       29.84S
CARLSBAD       CLOUDY    66  48  52 S9        29.83S
HOBBS          SUNNY     64  50  59 S20G25    29.87R


$$



USA.gov is the U.S. government's official web portal to all federal, state and local government web resources and services.